Temperature
19 20 20 19 19 19 19 19 19 19 19 19 19 19 19 19 19 19 19 19 19 18 19 19 18 18 18 18 18 18 18 18 18 18 18 18 18 17 17 17 17 17 17
20 20 20 19 19 19 19 19 19 19 19 19 19 19 19 19 19 19 19 19 18 18 18 18 18 18 18 18 18 18 18 18 18 18 18 18 17 17 17 17 17 17 17
20 20 20 19 19 19 19 19 19 19 19 19 19 19 19 19 19 18 18 18 18 18 18 18 18 18 18 18 18 18 18 18 18 18 17 17 17 17 17 17 17 17 17
20 19 19 19 19 19 19 19 19 19 19 19 19 19 18 18 18 18 18 18 18 18 18 18 18 18 18 18 18 18 18 18 17 17 17 17 17 17 17 17 17 17 17
19 20 20 19 19 19 19 19 19 19 19 19 19 18 18 18 18 18 18 18 18 18 18 18 18 18 18 18 18 18 18 17 17 17 17 17 17 17 17 17 17 17 17
20 20 20 19 19 19 19 19 19 19 19 19 18 18 18 18 18 18 18 18 18 18 18 18 18 18 18 18 18 18 18 17 17 17 17 17 17 17 17 17 17 17 17
20 20 20 20 19 19 19 19 19 19 19 19 18 18 18 18 18 18 18 18 18 18 18 18 18 18 18 18 18 18 18 17 17 17 17 17 17 17 17 17 17 17 17
20 20 20 20 19 19 19 19 19 19 19 19 18 18 18 18 18 18 18 18 18 18 18 18 18 18 18 18 18 18 18 18 17 17 17 17 17 17 17 17 17 17 17
20 20 20 20 19 19 19 19 19 19 19 19 18 18 18 18 18 18 18 18 18 18 18 18 18 18 18 18 18 18 18 18 18 17 18 18 17 17 17 17 17 17 17
21 20 19 19 19 19 19 19 19 19 19 19 18 18 18 18 18 18 18 18 18 18 18 18 18 18 18 18 18 18 18 18 18 18 18 18 17 17 17 17 17 17 17
21 20 20 19 19 19 19 19 19 19 19 18 18 18 18 18 18 18 18 18 18 18 18 18 18 18 18 18 18 18 18 18 18 18 18 18 18 17 17 17 17 17 17
21 21 20 20 19 19 19 19 19 18 19 18 18 18 18 18 18 18 18 18 18 18 18 18 18 18 18 18 18 18 18 18 18 18 18 18 18 17 17 17 17 17 17
21 21 20 20 20 20 19 19 19 18 19 18 18 18 18 18 18 18 18 18 18 18 18 18 18 18 18 18 18 18 18 18 18 18 18 18 18 18 17 17 17 17 17
21 21 21 20 20 20 20 19 19 19 19 19 18 18 18 18 18 18 18 18 18 18 18 18 18 18 18 18 18 18 18 18 18 18 18 18 18 18 18 17 17 17 17
21 21 20 20 20 20 20 19 19 19 19 19 19 19 18 18 18 18 18 18 18 18 18 18 18 18 18 18 18 18 18 18 18 18 18 18 18 18 18 17 17 17 17
21 21 20 20 20 20 20 19 19 19 19 19 19 19 18 18 18 18 18 18 18 18 18 18 18 18 18 18 18 18 18 18 18 18 18 18 18 18 18 17 17 17 17
21 21 20 20 20 20 19 19 19 19 19 19 19 19 19 18 18 18 18 18 18 18 18 18 18 18 18 18 18 18 18 18 18 18 18 18 18 18 18 18 17 17 17
22 21 20 20 20 20 20 19 19 19 19 19 19 19 19 18 18 18 18 18 18 18 18 18 18 18 18 18 18 18 18 18 18 18 17 17 17 17 17 18 18 18 17
22 21 20 20 20 20 20 20 19 19 19 19 19 19 19 19 18 18 18 18 18 18 18 18 18 18 18 18 18 18 18 18 18 18 18 17 17 17 17 18 18 17 17
22 21 21 20 20 20 20 20 19 19 19 19 19 19 19 19 19 19 18 18 18 18 18 18 18 18 18 18 18 18 18 18 18 18 18 18 18 17 17 18 18 18 17
21 21 21 20 20 20 19 19 19 19 19 19 19 19 19 19 19 19 19 18 18 18 18 18 18 18 18 18 18 18 18 19 18 18 18 18 18 18 18 17 18 18 18
21 21 21 21 20 20 20 20 19 19 19 19 19 19 19 19 19 19 19 19 18 18 18 18 18 18 18 18 18 18 18 19 19 19 19 18 18 18 18 18 18 18 17
22 21 21 21 21 21 20 20 19 19 19 19 19 19 19 19 19 19 19 19 19 18 18 18 18 18 18 18 18 18 18 19 19 19 19 19 18 18 18 18 18 18 18
22 22 21 21 21 21 20 20 20 19 19 19 19 19 19 19 19 19 19 19 19 19 18 18 18 18 18 18 18 18 18 18 18 19 19 19 19 19 18 18 18 18 18
22 22 21 21 21 21 21 20 20 20 20 20 19 19 19 19 19 19 19 19 19 19 19 18 18 18 18 18 18 18 18 18 18 18 18 19 19 19 19 19 18 18 18
23 22 22 21 21 21 21 20 20 20 20 20 19 19 19 19 19 19 19 19 19 19 19 19 18 18 18 18 18 18 18 18 18 18 18 19 19 19 19 19 19 18 18
Wind_Speed
12 14 15 16 16 17 17 17 18 18 18 18 18 18 18 18 18 18 18 18 18 18 18 18 18 18 19 20 19 19 20 20 20 20 20 19 18 17 16 18 19 18 19
15 15 16 16 16 16 16 17 17 17 17 17 17 17 17 18 18 18 18 17 18 18 18 18 19 19 19 19 18 18 18 18 19 20 20 18 17 17 16 17 18 17 18
16 16 16 16 16 16 16 17 17 17 17 17 17 17 17 17 18 18 18 18 18 19 19 19 19 19 18 17 16 15 15 15 16 18 18 17 17 17 18 19 19 18 18
17 16 17 17 17 16 17 17 17 17 16 17 17 17 17 17 18 18 18 19 19 20 19 19 19 18 17 15 14 13 12 12 12 12 12 15 16 17 18 18 18 18 17
17 18 18 18 17 17 16 16 16 16 16 17 17 17 17 17 18 19 19 19 20 20 19 19 18 17 15 13 11 10 8 7 7 10 15 17 15 16 17 17 16 16 16
18 19 18 17 17 16 16 16 15 16 16 16 16 17 17 17 18 18 19 19 19 19 18 18 17 15 13 11 8 7 5 4 5 12 16 17 15 15 16 16 16 15 15
18 18 17 17 17 16 16 16 16 16 16 16 16 17 17 17 18 18 18 18 18 18 17 16 16 14 11 9 7 5 4 4 6 13 16 16 15 15 15 15 15 15 14
19 18 17 17 17 16 16 15 15 15 16 16 16 16 16 16 17 17 17 17 16 16 16 15 14 12 9 7 5 4 4 4 9 15 16 15 16 15 15 14 14 14 14
18 17 16 16 15 16 15 15 15 15 15 15 15 15 15 16 16 17 16 15 15 15 14 13 12 10 8 5 4 4 5 5 7 14 16 14 15 14 14 14 14 13 13
16 15 15 15 15 15 14 14 14 14 14 14 14 14 15 15 16 16 15 14 13 12 12 11 10 9 7 4 2 3 4 4 7 14 15 14 15 14 14 13 13 13 12
13 12 13 13 13 14 14 14 14 13 12 12 11 12 13 12 13 13 14 13 12 11 10 10 9 7 5 3 2 3 3 1 10 13 14 15 15 14 13 13 12 12 12
11 11 11 11 11 12 12 12 12 11 10 8 10 10 8 8 12 14 14 12 10 9 8 8 8 6 5 4 5 4 2 3 10 12 14 16 15 14 13 12 12 11 11
10 10 10 8 7 9 9 9 7 9 9 8 8 8 8 9 11 12 10 9 8 8 7 8 8 6 6 3 2 3 2 6 9 12 14 16 15 13 12 11 11 10 10
10 10 10 9 5 5 7 7 7 7 7 7 7 8 7 4 6 7 6 7 7 6 5 6 5 4 3 2 2 3 4 6 9 12 13 14 14 13 12 11 10 10 9
10 10 9 8 7 5 4 2 5 6 6 8 6 6 7 5 4 4 4 3 4 5 4 3 2 3 3 2 3 3 4 5 8 12 13 14 14 12 12 11 10 10 10
12 11 10 9 8 5 4 1 3 5 6 6 6 6 5 6 5 4 3 2 2 3 3 3 3 3 2 2 2 1 2 3 6 12 13 13 13 13 12 11 11 10 10
12 11 10 9 9 6 5 4 4 5 7 5 6 7 5 6 6 5 3 2 3 4 4 3 2 2 2 2 2 1 1 3 3 7 12 13 12 13 13 13 12 12 11
12 11 10 10 11 7 4 3 2 4 6 5 7 8 6 5 6 4 3 3 4 4 3 2 1 1 1 1 1 2 2 2 4 6 8 11 13 13 14 15 14 13 13
11 11 9 8 10 9 7 4 2 2 3 4 6 7 7 7 6 4 2 3 4 3 2 3 2 1 1 1 2 3 3 3 4 6 6 9 11 13 15 17 17 16 15
12 11 9 8 9 8 6 4 2 3 3 3 4 6 8 7 6 4 2 4 4 2 2 1 2 0 1 2 3 2 3 3 4 5 6 8 10 13 15 16 16 16 18
12 12 10 10 9 7 6 6 5 4 4 3 4 7 8 7 7 5 2 3 3 2 3 2 2 2 3 3 2 2 3 4 5 4 5 5 6 10 12 15 16 15 16
13 12 11 10 10 8 6 5 4 4 4 5 4 6 8 7 6 7 5 4 4 3 3 3 2 2 3 2 2 1 2 3 3 6 5 5 6 6 7 12 15 15 14
15 14 13 11 11 10 8 6 5 4 3 3 4 5 6 8 8 6 6 5 3 4 3 4 4 4 3 3 3 3 2 3 2 3 5 5 6 5 6 7 11 15 16
15 14 12 12 11 10 9 8 8 6 5 5 4 5 6 7 7 7 6 5 4 3 3 5 5 4 5 4 4 4 4 2 2 2 3 4 5 6 6 8 9 12 15
16 15 13 12 11 10 9 9 8 7 5 5 5 5 6 5 7 7 6 5 4 4 4 4 4 5 4 5 4 3 4 4 5 4 4 3 3 5 6 7 6 8 13
15 14 14 13 12 11 10 10 9 8 6 5 5 5 5 4 5 5 6 4 4 4 4 5 4 6 5 5 5 5 4 4 4 5 5 4 4 5 5 5 6 6 9
Wind_Direction
93 94 93 89 88 88 89 91 91 90 89 89 89 89 90 90 92 96 97 99 100 101 101 102 101 99 98 97 98 99 99 100 102 102 101 99 98 101 107 110 106 102 105
101 99 96 93 91 91 90 91 91 91 91 90 90 90 92 93 93 96 98 99 101 102 102 102 100 99 99 100 101 103 105 107 110 110 106 98 95 96 99 102 102 108 108
105 104 99 94 94 93 92 93 94 93 92 91 91 90 91 94 95 96 97 96 100 101 101 101 100 100 100 101 104 108 111 115 121 123 115 104 98 95 97 100 104 109 110
110 108 101 98 96 94 94 95 95 95 95 94 92 91 92 94 96 97 98 96 97 100 99 100 100 101 102 105 108 112 117 125 133 129 113 104 102 99 101 105 108 109 110
107 104 104 102 99 98 98 97 98 97 96 96 94 92 91 94 94 94 95 95 97 99 99 99 99 100 102 105 107 108 114 123 124 106 96 97 99 105 106 107 109 111 112
110 108 108 107 104 102 101 101 100 99 97 96 95 95 94 94 94 94 95 96 96 97 97 98 99 101 100 100 98 95 92 86 89 101 103 104 105 109 110 110 110 111 111
110 111 112 110 107 105 103 103 101 100 101 100 99 98 96 96 96 96 97 98 98 97 98 99 100 99 97 94 86 74 58 48 103 100 98 102 109 112 111 111 112 113 113
116 114 115 113 110 108 106 105 104 103 103 103 103 102 101 100 100 100 100 100 100 100 100 100 101 100 97 88 72 51 32 28 101 106 104 107 115 114 114 113 113 113 114
118 122 123 121 116 112 110 110 110 109 108 109 110 110 109 108 106 104 102 101 102 103 104 105 106 105 101 91 68 30 18 16 97 112 111 113 118 118 118 117 116 116 116
122 128 129 128 129 127 119 116 116 116 117 118 120 120 119 117 115 113 108 105 105 107 111 114 115 113 110 103 64 358 354 9 104 104 109 120 124 123 123 122 121 120 121
124 129 131 134 141 135 129 128 128 127 129 131 132 136 138 134 126 121 112 114 114 116 120 126 126 129 135 154 227 283 308 145 96 100 110 126 129 128 128 128 127 127 126
129 131 130 138 144 138 133 141 146 137 143 145 137 150 158 131 123 120 124 125 126 129 132 143 148 159 186 194 210 229 235 139 109 109 120 132 132 133 133 133 133 133 133
139 134 130 129 131 134 134 149 141 130 143 143 144 154 153 135 130 130 136 140 148 156 159 154 172 193 205 210 208 191 125 96 101 110 130 136 137 139 139 140 142 142 143
147 138 131 125 113 110 127 134 141 140 146 146 160 162 137 128 125 131 141 158 162 167 165 169 183 175 141 114 61 57 65 94 110 119 139 144 145 147 149 152 152 154 155
148 138 128 126 119 105 95 137 134 134 139 141 149 136 142 137 134 132 131 145 163 155 156 150 134 103 91 72 54 54 72 88 120 130 141 154 156 159 162 165 166 169 169
156 147 139 139 130 126 133 125 120 127 122 136 141 138 146 127 128 129 141 152 146 129 116 107 121 123 117 92 90 86 100 98 113 133 146 161 168 171 176 178 180 182 182
159 150 146 149 143 151 162 178 156 146 148 143 134 140 146 136 134 142 152 177 149 135 128 129 131 136 164 157 160 160 127 121 125 135 156 165 175 184 187 188 189 191 193
156 150 161 164 153 159 174 205 182 155 139 143 144 150 152 139 150 161 167 157 145 149 156 145 194 165 163 152 173 210 164 159 167 173 171 173 177 184 191 196 197 199 202
152 151 163 155 153 163 170 183 215 125 126 144 150 149 155 163 167 181 154 129 151 158 174 192 154 175 183 209 215 207 200 196 190 198 189 187 187 180 183 196 201 204 207
155 154 162 160 156 163 168 173 219 172 163 169 158 153 159 171 177 182 158 160 176 176 173 148 123 175 257 252 259 224 229 205 206 204 202 198 193 194 191 188 195 206 212
160 160 166 171 166 172 176 180 193 188 183 181 185 164 167 180 180 188 199 166 193 187 170 173 163 207 237 243 260 265 255 236 222 214 207 201 200 207 197 184 189 199 205
165 168 172 178 173 182 183 185 187 184 189 190 190 162 171 184 190 195 196 197 193 187 190 202 194 224 246 231 229 245 261 255 248 232 204 200 207 205 203 198 197 200 202
175 176 182 181 177 188 183 183 198 183 210 200 179 169 184 189 197 212 188 205 200 194 198 207 207 215 236 244 229 219 237 243 254 246 227 210 202 201 206 208 210 206 207
180 180 180 178 179 185 187 193 196 194 201 202 188 182 188 196 200 205 201 203 205 213 203 215 213 220 225 243 242 235 244 257 240 263 269 235 220 213 215 218 219 208 208
183 181 179 178 181 182 190 195 202 205 204 202 197 186 189 195 206 208 204 200 206 219 217 224 223 223 230 240 249 247 242 246 235 231 251 257 241 227 224 222 222 212 208
182 181 180 177 182 182 192 196 201 207 206 207 204 193 198 205 208 208 205 200 208 220 226 223 227 228 233 244 256 260 245 237 236 235 238 250 252 247 236 231 220 211 206
Height
1514 1513 1513 1514 1514 1514 1514 1515 1516 1517 1518 1519 1520 1521 1522 1522 1523 1524 1525 1527 1529 1530 1532 1533 1535 1536 1538 1540 1542 1544 1545 1547 1548 1549 1550 1552 1553 1554 1555 1556 1558 1558 1560
1516 1516 1516 1517 1517 1518 1518 1519 1520 1521 1522 1523 1524 1524 1525 1526 1527 1528 1529 1530 1531 1533 1534 1536 1537 1539 1541 1543 1544 1546 1548 1549 1550 1552 1553 1554 1555 1556 1557 1559 1560 1561 1562
1518 1518 1519 1519 1520 1521 1522 1522 1523 1524 1525 1526 1527 1528 1529 1529 1530 1531 1532 1533 1534 1536 1537 1539 1540 1542 1544 1546 1547 1549 1551 1552 1553 1554 1556 1557 1558 1559 1560 1561 1562 1563 1564
1521 1521 1522 1523 1524 1524 1525 1526 1527 1528 1529 1530 1531 1531 1532 1533 1533 1535 1535 1536 1537 1539 1540 1542 1543 1545 1547 1549 1550 1552 1553 1555 1556 1558 1559 1559 1560 1561 1562 1563 1564 1565 1566
1523 1524 1525 1526 1527 1528 1529 1530 1530 1531 1532 1533 1534 1535 1536 1536 1537 1538 1539 1540 1541 1542 1544 1545 1546 1548 1550 1552 1553 1555 1556 1558 1559 1560 1561 1561 1562 1564 1565 1565 1567 1568 1569
1526 1527 1527 1529 1530 1531 1532 1533 1534 1534 1535 1536 1537 1538 1539 1540 1540 1542 1542 1544 1545 1546 1547 1549 1550 1551 1553 1554 1556 1558 1559 1560 1561 1562 1563 1563 1565 1566 1567 1568 1569 1570 1571
1528 1529 1530 1531 1532 1533 1534 1536 1537 1538 1538 1539 1540 1541 1542 1543 1544 1545 1546 1547 1548 1550 1551 1552 1553 1554 1556 1557 1559 1560 1561 1562 1564 1564 1565 1566 1567 1568 1569 1570 1570 1571 1573
1530 1531 1532 1534 1535 1536 1537 1539 1540 1540 1541 1542 1543 1544 1545 1546 1547 1548 1549 1551 1552 1553 1554 1555 1556 1557 1558 1560 1561 1562 1564 1564 1566 1566 1566 1567 1568 1569 1570 1571 1572 1573 1574
1532 1533 1535 1536 1538 1539 1540 1541 1542 1543 1544 1545 1546 1547 1548 1549 1550 1551 1553 1554 1555 1556 1557 1558 1559 1560 1561 1562 1564 1565 1566 1567 1568 1568 1568 1569 1570 1571 1572 1573 1574 1575 1576
1535 1536 1538 1539 1540 1541 1543 1544 1545 1546 1547 1548 1549 1550 1551 1552 1553 1555 1556 1556 1557 1558 1560 1561 1562 1563 1564 1565 1566 1567 1568 1569 1570 1570 1570 1571 1572 1572 1573 1574 1575 1576 1578
1537 1539 1540 1541 1543 1544 1545 1546 1547 1548 1549 1550 1552 1553 1554 1555 1556 1557 1558 1559 1560 1561 1562 1563 1564 1565 1566 1568 1569 1569 1570 1570 1571 1571 1571 1572 1573 1574 1575 1576 1577 1578 1579
1539 1541 1542 1543 1545 1547 1548 1548 1550 1551 1552 1553 1554 1555 1556 1558 1559 1559 1561 1562 1563 1563 1564 1565 1566 1567 1568 1569 1571 1571 1571 1572 1572 1572 1573 1573 1574 1575 1576 1577 1578 1579 1580
1540 1542 1543 1545 1547 1549 1550 1551 1552 1553 1554 1555 1556 1557 1559 1560 1561 1562 1562 1563 1564 1565 1566 1567 1568 1569 1570 1571 1572 1572 1573 1573 1573 1573 1574 1575 1575 1576 1577 1578 1579 1579 1580
1540 1542 1544 1546 1548 1550 1551 1552 1554 1555 1555 1557 1558 1559 1561 1562 1563 1564 1564 1565 1566 1567 1568 1568 1569 1570 1571 1572 1573 1574 1574 1574 1574 1574 1575 1575 1576 1577 1577 1578 1579 1580 1581
1540 1543 1544 1546 1548 1550 1551 1553 1555 1556 1557 1558 1559 1561 1562 1563 1564 1565 1566 1566 1567 1568 1569 1570 1571 1572 1572 1573 1573 1574 1575 1575 1575 1575 1575 1576 1577 1577 1578 1579 1579 1580 1581
1540 1542 1544 1546 1548 1549 1551 1553 1555 1557 1558 1559 1560 1561 1563 1564 1565 1566 1566 1567 1568 1569 1570 1571 1571 1572 1573 1573 1574 1575 1575 1576 1576 1575 1575 1576 1577 1577 1578 1578 1579 1580 1581
1539 1541 1543 1545 1547 1549 1551 1554 1556 1557 1558 1559 1560 1561 1563 1564 1565 1566 1567 1568 1569 1570 1571 1571 1572 1572 1573 1574 1574 1575 1575 1576 1576 1576 1576 1576 1577 1577 1577 1578 1579 1579 1580
1538 1540 1543 1546 1546 1549 1551 1553 1556 1558 1559 1560 1560 1561 1563 1564 1565 1566 1567 1568 1569 1570 1571 1572 1572 1572 1573 1574 1574 1575 1575 1575 1576 1576 1576 1576 1576 1576 1577 1577 1578 1579 1579
1536 1538 1542 1545 1546 1548 1550 1553 1555 1557 1558 1559 1560 1561 1562 1563 1564 1565 1567 1568 1569 1570 1571 1572 1572 1572 1573 1573 1574 1574 1574 1574 1575 1575 1575 1575 1576 1576 1576 1576 1577 1577 1578
1535 1537 1540 1543 1545 1547 1549 1552 1554 1556 1557 1559 1560 1561 1561 1562 1564 1565 1566 1567 1568 1569 1570 1571 1571 1571 1572 1572 1573 1573 1573 1573 1573 1574 1574 1574 1574 1575 1575 1575 1575 1576 1576
1533 1535 1538 1540 1543 1545 1548 1550 1552 1554 1556 1557 1559 1560 1560 1562 1563 1564 1565 1566 1567 1568 1569 1569 1570 1570 1570 1571 1571 1572 1572 1572 1572 1572 1572 1573 1573 1573 1574 1573 1573 1574 1574
1530 1532 1535 1538 1541 1543 1546 1549 1551 1553 1554 1556 1557 1558 1559 1560 1562 1563 1563 1564 1565 1566 1567 1567 1568 1568 1568 1569 1570 1570 1570 1571 1569 1570 1570 1570 1570 1571 1571 1572 1571 1571 1572
1527 1529 1533 1536 1538 1541 1544 1547 1550 1551 1553 1555 1556 1556 1557 1558 1559 1560 1561 1563 1563 1564 1564 1565 1566 1566 1567 1567 1568 1569 1568 1567 1567 1567 1567 1568 1568 1568 1568 1569 1569 1569 1569
1525 1527 1530 1533 1536 1539 1542 1544 1546 1548 1550 1552 1553 1554 1555 1556 1557 1558 1559 1560 1561 1562 1562 1563 1563 1564 1565 1565 1565 1565 1566 1566 1566 1565 1565 1565 1566 1566 1566 1566 1566 1566 1566
1522 1525 1527 1530 1533 1536 1538 1541 1543 1546 1548 1550 1551 1552 1553 1554 1555 1556 1557 1558 1558 1559 1560 1560 1561 1561 1562 1562 1563 1563 1562 1563 1563 1563 1562 1562 1563 1563 1562 1563 1563 1563 1563
1520 1523 1525 1527 1530 1532 1535 1538 1540 1542 1545 1547 1548 1550 1551 1552 1553 1553 1555 1555 1556 1556 1557 1557 1558 1558 1559 1559 1559 1560 1560 1560 1559 1560 1559 1559 1559 1559 1559 1559 1559 1559 1559